User: anonymous   Login
Location: Unspecified
(0.0000°N, 0.0000°E)
Time: 09:19:06
(UTC+00:00)
Language:

KAGAYAKI - Orbit

View from above orbital plane
View from above orbital plane
View from above satellite
View from above satellite

Ground track
Ground track

The orbit data is extracted from the following two-line orbital elements,

1 33495U 09002D   17086.91465145 +.00000056 +00000-0 +17304-4 0  9992
2 33495 098.3150 239.9578 0006882 286.8160 073.2291 14.72009674438458
Epoch (UTC): 27 March 2017 21:57:05
Eccentricity: 0.0006882
inclination: 98.3150°
perigee height: 650 km
apogee height: 659 km
right ascension of ascending node: 239.9578°
argument of perigee: 286.8160°
revolutions per day: 14.72009674
mean anomaly at epoch: 73.2291°
orbit number at epoch: 43845

The dashed part of the orbit path shows where the satellite is in the earth's shadow,  

DLR